CW9687 Weather Reports


Display with metric or nautical units.
time (UTC)temp
F
wind
direction
speed
MPH
gust
MPH
rain 1hr
in
rain 24hr
in
rain mn
in
humidity
%
barometer
mb
20260905025540 64 252 0.0 2.0 0.00 0.00 0.00 81 1013.3
20260905025041 64 291 0.0 2.0 0.00 0.00 0.00 81 1013.3
20260905024548 64 291 0.0 3.0 0.00 0.00 0.00 81 1013.3
20260905024040 64 291 0.0 6.0 0.00 0.00 0.00 81 1013.3
20260905023541 64 291 0.0 4.0 0.00 0.00 0.00 81 1013.2
20260905023040 64 296 0.0 4.0 0.00 0.00 0.00 81 1013.1
20260905022540 64 298 1.0 6.0 0.00 0.00 0.00 82 1013.3
20260905022040 65 298 3.0 6.0 0.00 0.00 0.00 82 1013.2
20260905021543 65 277 1.0 7.0 0.00 0.00 0.00 82 1013.2
20260905021039 65 283 2.0 7.0 0.00 0.00 0.00 82 1013.2
20260905020539 65 293 0.0 4.0 0.00 0.00 0.00 82 1013.3
20260905020030 65 285 2.0 9.0 0.00 0.00 0.00 82 1013.3
20260905015529 65 301 3.0 9.0 0.00 0.00 0.00 82 1013.3
20260905015030 65 291 3.0 6.0 0.00 0.00 0.00 82 1013.3
20260905014535 66 272 3.0 7.0 0.00 0.00 0.00 82 1013.3
20260905014029 66 310 3.0 11.0 0.00 0.00 0.00 82 1013.3
20260905013531 66 277 5.0 11.0 0.00 0.00 0.00 83 1013.3
20260905013028 66 283 2.0 9.0 0.00 0.00 0.00 83 1013.3
20260905012528 66 275 2.0 12.0 0.00 0.00 0.00 83 1013.3
20260905012028 67 294 3.0 12.0 0.00 0.00 0.00 83 1013.2
20260905011528 67 307 5.0 10.0 0.00 0.00 0.00 83 1013.2
20260905011027 67 301 2.0 10.0 0.00 0.00 0.00 84 1013.2
20260905010527 67 276 5.0 9.0 0.00 0.00 0.00 83 1013.3
20260905010030 68 307 1.0 10.0 0.00 0.00 0.00 84 1013.2
20260905005527 68 268 2.0 11.0 0.00 0.00 0.00 84 1013.3
20260905005027 68 308 3.0 11.0 0.00 0.00 0.00 84 1013.2
20260905004530 68 286 3.0 11.0 0.00 0.00 0.00 84 1013.1
20260905004025 69 278 5.0 10.0 0.00 0.00 0.00 84 1013.2
20260905003528 69 314 5.0 11.0 0.00 0.00 0.00 84 1013.2
20260905003033 69 316 5.0 11.0 0.00 0.00 0.00 85 1013.2
20260905002525 69 195 6.0 10.0 0.00 0.00 0.00 84 1013.2
20260905002024 70 296 5.0 10.0 0.00 0.00 0.00 85 1013.2
20260905001524 70 274 4.0 12.0 0.00 0.00 0.00 85 1013.2
20260905001023 70 279 3.0 12.0 0.00 0.00 0.00 85 1013.3
20260905000524 70 310 5.0 14.0 0.00 0.00 0.00 85 1013.1
20260905000023 71 279 7.0 14.0 0.00 0.00 0.00 85 1013.1
20260904235522 71 291 6.0 12.0 0.00 0.00 0.00 85 1013.1
20260904235022 72 294 6.0 12.0 0.00 0.00 0.00 85 1013.1
20260904234522 72 300 6.0 12.0 0.00 0.00 0.00 85 1013.0
20260904234024 73 269 1.0 10.0 0.00 0.00 0.00 85 1013.0
20260904233522 73 308 5.0 11.0 0.00 0.00 0.00 85 1013.0
20260904233024 73 325 4.0 11.0 0.00 0.00 0.00 85 1012.9
20260904232521 73 290 2.0 11.0 0.00 0.00 0.00 85 1012.9
20260904232023 73 335 3.0 11.0 0.00 0.00 0.00 85 1012.9
20260904231521 73 321 4.0 11.0 0.00 0.00 0.00 85 1012.9
20260904231020 73 296 3.0 11.0 0.00 0.00 0.00 85 1012.9
20260904230521 73 281 6.0 15.0 0.00 0.00 0.00 85 1013.0
20260904230020 73 306 4.0 14.0 0.00 0.00 0.00 85 1013.0
20260904225519 73 301 8.0 14.0 0.00 0.00 0.00 84 1013.1
20260904225019 73 315 2.0 13.0 0.00 0.00 0.00 85 1013.1
20260904224523 73 301 8.0 14.0 0.00 0.00 0.00 85 1013.0
20260904224020 74 268 7.0 14.0 0.00 0.00 0.00 85 1013.1
20260904223519 74 272 5.0 14.0 0.00 0.00 0.00 85 1013.2
20260904223019 74 277 8.0 15.0 0.00 0.00 0.00 85 1013.2
20260904222519 74 318 8.0 15.0 0.00 0.00 0.00 85 1013.2
20260904222018 74 271 5.0 12.0 0.00 0.00 0.00 85 1013.2
20260904221538 74 277 3.0 16.0 0.00 0.00 0.00 85 1013.2
20260904221019 74 298 7.0 16.0 0.00 0.00 0.00 84 1013.3
20260904220518 74 336 4.0 14.0 0.00 0.00 0.00 85 1013.7
20260904220006 74 309 7.0 16.0 0.00 0.00 0.00 85 1013.2
20260904215506 74 320 5.0 16.0 0.00 0.00 0.00 85 1013.2
20260904215005 74 307 5.0 17.0 0.00 0.00 0.00 85 1013.3
20260904214505 74 317 5.0 14.0 0.00 0.00 0.00 85 1013.3
20260904214005 75 335 6.0 17.0 0.00 0.00 0.00 84 1013.2
20260904213505 75 307 4.0 15.0 0.00 0.00 0.00 85 1013.1
20260904213014 75 300 6.0 14.0 0.00 0.00 0.00 85 1013.1
20260904212505 75 299 6.0 14.0 0.00 0.00 0.00 85 1013.1
20260904212004 75 264 5.0 14.0 0.00 0.00 0.00 84 1013.2
20260904211505 75 284 8.0 15.0 0.00 0.00 0.00 85 1013.2
20260904211004 75 306 9.0 15.0 0.00 0.00 0.00 84 1013.2
20260904210503 75 296 8.0 14.0 0.00 0.00 0.00 85 1013.2
20260904210003 75 304 8.0 13.0 0.00 0.00 0.00 85 1013.1
20260904205503 75 291 7.0 14.0 0.00 0.00 0.00 85 1013.2
20260904205002 75 284 7.0 14.0 0.00 0.00 0.00 85 1013.2
20260904204505 75 308 7.0 16.0 0.00 0.00 0.00 85 1013.2
20260904204003 75 280 6.0 16.0 0.00 0.00 0.00 84 1013.2
20260904203502 75 273 7.0 16.0 0.00 0.00 0.00 84 1013.2
20260904203002 75 296 7.0 14.0 0.00 0.00 0.00 85 1013.2
20260904202501 75 310 9.0 14.0 0.00 0.00 0.00 84 1013.3
20260904202100 75 278 7.0 14.0 0.00 0.00 0.00 84 1013.3
20260904201601 75 298 8.0 14.0 0.00 0.00 0.00 84 1013.4
20260904201059 76 280 7.0 14.0 0.00 0.00 0.00 84 1013.3
20260904200601 76 290 5.0 10.0 0.00 0.00 0.00 84 1013.4
20260904200122 76 281 5.0 13.0 0.00 0.00 0.00 84 1013.4
20260904195558 76 290 7.0 13.0 0.00 0.00 0.00 84 1013.4
20260904195101 76 288 6.0 13.0 0.00 0.00 0.00 84 1013.5
20260904194634 76 297 6.0 13.0 0.00 0.00 0.00 84 1013.5
20260904194057 76 279 4.0 14.0 0.00 0.00 0.00 84 1013.5
20260904193557 76 296 5.0 12.0 0.00 0.00 0.00 84 1013.6
20260904193056 76 307 6.0 11.0 0.00 0.00 0.00 83 1013.6
20260904192556 76 312 3.0 10.0 0.00 0.00 0.00 83 1013.6
20260904192057 76 290 4.0 13.0 0.00 0.00 0.00 83 1013.6
20260904191558 75 304 3.0 13.0 0.00 0.00 0.00 84 1013.6
20260904191050 75 304 7.0 12.0 0.00 0.00 0.00 83 1013.7
20260904190549 75 280 4.0 10.0 0.00 0.00 0.00 83 1013.9
20260904190028 75 314 4.0 11.0 0.00 0.00 0.00 83 1013.9
20260904185526 75 299 5.0 11.0 0.00 0.00 0.00 83 1014.0
20260904185025 75 296 5.0 12.0 0.00 0.00 0.00 83 1014.1
20260904184523 74 287 5.0 12.0 0.00 0.00 0.00 83 1014.2
20260904184023 74 311 7.0 11.0 0.00 0.00 0.00 83 1014.2
20260904183523 74 271 4.0 11.0 0.00 0.00 0.00 83 1014.2
20260904183022 74 300 7.0 11.0 0.00 0.00 0.00 83 1014.3
20260904182521 74 285 5.0 13.0 0.00 0.00 0.00 83 1014.3
20260904182020 74 306 7.0 13.0 0.00 0.00 0.00 82 1014.3
20260904181620 74 302 5.0 11.0 0.00 0.00 0.00 82 1014.2
20260904181036 74 290 4.0 10.0 0.00 0.00 0.00 82 1014.3
20260904180537 74 297 5.0 9.0 0.00 0.00 0.00 82 1014.2
20260904180039 74 326 0.0 10.0 0.00 0.00 0.00 82 1014.3
20260904175532 73 298 5.0 10.0 0.00 0.00 0.00 82 1014.3
20260904175033 73 314 4.0 11.0 0.00 0.00 0.00 82 1014.3
20260904174529 73 306 5.0 11.0 0.00 0.00 0.00 82 1014.2
20260904174029 73 272 2.0 7.0 0.00 0.00 0.00 82 1014.2
20260904173527 72 2 1.0 8.0 0.00 0.00 0.00 81 1014.2
20260904173035 72 304 4.0 8.0 0.00 0.00 0.00 81 1014.2
20260904172526 72 275 3.0 8.0 0.00 0.00 0.00 81 1014.2
20260904172025 72 314 1.0 6.0 0.00 0.00 0.00 81 1014.2
20260904171532 72 298 0.0 4.0 0.00 0.00 0.00 81 1014.2
20260904171022 71 303 0.0 6.0 0.00 0.00 0.00 81 1014.3
20260904170525 71 285 3.0 7.0 0.00 0.00 0.00 81 1014.2
20260904170021 71 298 3.0 9.0 0.00 0.00 0.00 81 1014.3
20260904165520 70 307 4.0 7.0 0.00 0.00 0.00 81 1014.2
20260904165019 70 344 0.0 6.0 0.00 0.00 0.00 81 1014.1
20260904164518 69 327 1.0 6.0 0.00 0.00 0.00 81 1014.2
20260904164020 69 328 1.0 7.0 0.00 0.00 0.00 81 1014.1
20260904163515 69 327 2.0 7.0 0.00 0.00 0.00 80 1014.1
20260904163014 69 18 0.0 4.0 0.00 0.00 0.00 81 1014.0
20260904162513 68 339 0.0 4.0 0.00 0.00 0.00 81 1014.0
20260904162017 68 339 1.0 4.0 0.00 0.00 0.00 81 1014.0
20260904161512 68 340 0.0 5.0 0.00 0.00 0.00 80 1014.0
20260904161011 68 340 3.0 7.0 0.00 0.00 0.00 80 1014.1
20260904160511 68 341 3.0 7.0 0.00 0.00 0.00 80 1014.1
20260904160010 68 351 0.0 2.0 0.00 0.00 0.00 80 1014.1
20260904155508 67 302 0.0 0.0 0.00 0.00 0.00 80 1014.1
20260904155008 67 304 0.0 4.0 0.00 0.00 0.00 80 1014.1
20260904154506 66 304 1.0 4.0 0.00 0.00 0.00 80 1013.9
20260904154005 66 128 0.0 2.0 0.00 0.00 0.00 80 1014.0
20260904153503 65 128 0.0 2.0 0.00 0.00 0.00 80 1014.0
20260904153005 65 128 0.0 1.0 0.00 0.00 0.00 80 1014.0
20260904152500 64 113 0.0 1.0 0.00 0.00 0.00 81 1014.0
20260904152059 63 112 0.0 1.0 0.00 0.00 0.00 81 1014.1
20260904151609 63 112 0.0 1.0 0.00 0.00 0.00 81 1014.2
20260904151057 63 112 0.0 2.0 0.00 0.00 0.00 81 1014.1
20260904150556 62 112 0.0 4.0 0.00 0.00 0.00 81 1014.0
20260904150055 62 112 1.0 4.0 0.00 0.00 0.00 81 1014.0
20260904145552 62 114 0.0 3.0 0.00 0.00 0.00 81 1013.9
20260904145052 62 114 0.0 3.0 0.00 0.00 0.00 81 1013.7
20260904144552 62 114 0.0 3.0 0.00 0.00 0.00 81 1013.7
20260904144051 61 114 0.0 3.0 0.00 0.00 0.00 81 1013.5
20260904143552 61 114 0.0 0.0 0.00 0.00 0.00 81 1013.6
20260904143049 61 114 0.0 0.0 0.00 0.00 0.00 81 1013.7
20260904142548 61 114 0.0 2.0 0.00 0.00 0.00 81 1013.7
20260904142047 61 114 0.0 2.0 0.00 0.00 0.00 81 1013.6
20260904141614 61 114 0.0 1.0 0.00 0.00 0.00 82 1013.7
20260904141046 61 114 0.0 3.0 0.00 0.00 0.00 81 1013.6
20260904140545 61 114 0.0 3.0 0.00 0.00 0.00 81 1013.7
20260904140040 61 114 0.0 4.0 0.00 0.00 0.00 81 1013.6
20260904135538 61 114 2.0 4.0 0.00 0.00 0.00 81 1013.6
20260904135037 61 96 0.0 3.0 0.00 0.00 0.00 81 1013.4
20260904134538 61 96 0.0 4.0 0.00 0.00 0.00 81 1013.4
20260904134035 61 96 1.0 4.0 0.00 0.00 0.00 81 1013.3
20260904133535 61 96 1.0 6.0 0.00 0.00 0.00 81 1013.4
20260904133041 61 98 2.0 6.0 0.00 0.00 0.00 81 1013.3
20260904132535 61 102 2.0 6.0 0.00 0.00 0.00 81 1013.3
20260904132034 61 100 3.0 6.0 0.00 0.00 0.00 81 1013.3
20260904131534 61 114 2.0 5.0 0.00 0.00 0.00 81 1013.2
20260904131036 61 96 0.0 4.0 0.00 0.00 0.00 81 1013.3
20260904130533 61 96 1.0 4.0 0.00 0.00 0.00 81 1013.2
20260904130033 61 90 2.0 4.0 0.00 0.00 0.00 81 1013.1
20260904125533 61 88 2.0 4.0 0.00 0.00 0.00 81 1013.1
20260904125037 61 87 0.0 2.0 0.00 0.00 0.00 81 1013.0
20260904124535 61 87 0.0 2.0 0.00 0.00 0.00 81 1013.0
20260904124034 61 87 0.0 0.0 0.00 0.00 0.00 81 1013.0
20260904123532 61 87 0.0 0.0 0.00 0.00 0.00 81 1013.1
20260904123035 61 87 0.0 0.0 0.00 0.00 0.00 81 1013.1
20260904122531 61 87 0.0 0.0 0.00 0.00 0.00 81 1013.1
20260904122031 61 87 0.0 3.0 0.00 0.00 0.00 81 1013.0
20260904121536 61 87 0.0 3.0 0.00 0.00 0.00 81 1013.0
20260904121031 61 71 0.0 0.0 0.00 0.00 0.00 81 1013.0
20260904120530 61 71 0.0 0.0 0.00 0.00 0.00 81 1013.0
20260904120037 61 71 0.0 1.0 0.00 0.00 0.00 81 1013.1
20260904115531 61 71 0.0 1.0 0.00 0.00 0.00 81 1013.1
20260904115030 61 71 0.0 1.0 0.00 0.00 0.00 81 1013.1
20260904114532 61 71 0.0 1.0 0.00 0.00 0.00 81 1013.2
20260904114031 61 71 0.0 1.0 0.00 0.00 0.00 81 1013.2
20260904113529 61 71 0.0 1.0 0.00 0.00 0.00 81 1013.2
20260904113035 61 71 0.0 1.0 0.00 0.00 0.00 82 1013.2
20260904112528 61 71 0.0 0.0 0.00 0.00 0.00 81 1013.2
20260904112031 61 71 0.0 2.0 0.00 0.00 0.00 81 1013.2
20260904111528 61 71 0.0 3.0 0.00 0.00 0.00 81 1013.2
20260904111028 61 71 0.0 3.0 0.00 0.00 0.00 81 1013.2
20260904110528 61 71 0.0 3.0 0.00 0.00 0.00 82 1013.2
20260904110028 61 71 0.0 3.0 0.00 0.00 0.00 82 1013.1
20260904105528 61 71 1.0 3.0 0.00 0.00 0.00 82 1013.2
20260904105024 61 62 0.0 1.0 0.00 0.00 0.00 82 1013.1
20260904104523 62 62 0.0 2.0 0.00 0.00 0.00 82 1013.1
20260904104022 62 62 0.0 2.0 0.00 0.00 0.00 81 1013.1
20260904103523 62 62 0.0 0.0 0.00 0.00 0.00 82 1013.0
20260904103022 62 62 0.0 0.0 0.00 0.00 0.00 81 1013.0
20260904102523 62 62 0.0 0.0 0.00 0.00 0.00 82 1013.1
20260904102021 62 62 0.0 0.0 0.00 0.00 0.00 81 1013.0
20260904101521 62 62 0.0 0.0 0.00 0.00 0.00 81 1012.9
20260904101021 62 62 0.0 0.0 0.00 0.00 0.00 81 1013.0
20260904100521 62 62 0.0 0.0 0.00 0.00 0.00 81 1012.9
20260904100021 61 62 0.0 0.0 0.00 0.00 0.00 82 1012.9
20260904095525 61 62 0.0 0.0 0.00 0.00 0.00 82 1013.0
20260904095021 61 62 0.0 0.0 0.00 0.00 0.00 82 1013.0
20260904094520 61 62 0.0 0.0 0.00 0.00 0.00 82 1013.0
20260904094022 61 62 0.0 0.0 0.00 0.00 0.00 82 1013.0
20260904093524 61 62 0.0 0.0 0.00 0.00 0.00 82 1012.9
20260904093019 61 62 0.0 0.0 0.00 0.00 0.00 82 1012.8
20260904092523 61 62 0.0 0.0 0.00 0.00 0.00 82 1012.8
20260904092019 61 62 0.0 0.0 0.00 0.00 0.00 82 1012.8
20260904091518 61 62 0.0 0.0 0.00 0.00 0.00 82 1012.9
20260904091018 61 62 0.0 0.0 0.00 0.00 0.00 82 1012.9
20260904090518 61 62 0.0 0.0 0.00 0.00 0.00 82 1012.8
20260904090017 61 62 0.0 0.0 0.00 0.00 0.00 82 1012.9
20260904085517 61 62 0.0 0.0 0.00 0.00 0.00 82 1012.9
20260904085017 61 62 0.0 0.0 0.00 0.00 0.00 82 1012.9
20260904084517 61 62 0.0 0.0 0.00 0.00 0.00 82 1013.0
20260904084018 61 62 0.0 1.0 0.00 0.00 0.00 82 1013.0
20260904083515 62 62 0.0 1.0 0.00 0.00 0.00 82 1013.0
20260904083019 62 62 0.0 1.0 0.00 0.00 0.00 81 1013.1
20260904082514 62 62 0.0 0.0 0.00 0.00 0.00 81 1013.1
20260904082015 62 62 0.0 1.0 0.00 0.00 0.00 82 1013.2
20260904081516 62 62 0.0 1.0 0.00 0.00 0.00 81 1013.2
20260904081013 62 62 0.0 2.0 0.00 0.00 0.00 82 1013.3
20260904080512 62 62 0.0 3.0 0.00 0.00 0.00 81 1013.4
20260904080011 62 62 1.0 3.0 0.00 0.00 0.00 81 1013.4
20260904075512 62 26 0.0 0.0 0.00 0.00 0.00 81 1013.5
20260904075011 62 26 0.0 0.0 0.00 0.00 0.00 82 1013.5
20260904074521 62 26 0.0 0.0 0.00 0.00 0.00 82 1013.4
20260904074010 62 26 0.0 0.0 0.00 0.00 0.00 82 1013.5
20260904073513 62 26 0.0 0.0 0.00 0.00 0.00 82 1013.5
20260904073110 62 26 0.0 0.0 0.00 0.00 0.00 82 1013.4
20260904072508 62 26 0.0 0.0 0.00 0.00 0.00 81 1013.4
20260904072008 62 25 0.0 0.0 0.00 0.00 0.00 81 1013.4
20260904071508 62 25 0.0 0.0 0.00 0.00 0.00 81 1013.4
20260904071008 62 25 0.0 0.0 0.00 0.00 0.00 81 1013.5
20260904070506 62 25 0.0 0.0 0.00 0.00 0.00 81 1013.5
20260904070006 62 25 0.0 0.0 0.00 0.00 0.00 81 1013.5
20260904065506 62 25 0.0 0.0 0.00 0.00 0.00 81 1013.5
20260904065006 62 25 0.0 0.0 0.00 0.00 0.00 81 1013.5
20260904064507 62 25 0.0 0.0 0.00 0.00 0.00 82 1013.6
20260904064005 61 25 0.0 0.0 0.00 0.00 0.00 82 1013.6
20260904063505 61 25 0.0 0.0 0.00 0.00 0.00 82 1013.6
20260904063010 61 25 0.0 0.0 0.00 0.00 0.00 82 1013.6
20260904062504 61 25 0.0 0.0 0.00 0.00 0.00 82 1013.6
20260904062004 61 25 0.0 0.0 0.00 0.00 0.00 82 1013.5
20260904061511 61 25 0.0 0.0 0.00 0.00 0.00 82 1013.6
20260904061004 61 25 0.0 0.0 0.00 0.00 0.00 82 1013.6
20260904060504 61 25 0.0 0.0 0.00 0.00 0.00 82 1013.6
20260904060007 61 25 0.0 0.0 0.00 0.00 0.00 82 1013.5
20260904055504 61 25 0.0 0.0 0.00 0.00 0.00 82 1013.5
20260904055003 61 25 0.0 0.0 0.00 0.00 0.00 82 1013.6
20260904054509 61 25 0.0 0.0 0.00 0.00 0.00 82 1013.6
20260904054002 61 25 0.0 0.0 0.00 0.00 0.00 82 1013.6
20260904053503 61 25 0.0 0.0 0.00 0.00 0.00 82 1013.6
20260904053004 61 25 0.0 0.0 0.00 0.00 0.00 82 1013.6
20260904052504 61 25 0.0 0.0 0.00 0.00 0.00 83 1013.6
20260904052004 61 25 0.0 0.0 0.00 0.00 0.00 83 1013.7
20260904051509 61 25 0.0 0.0 0.00 0.00 0.00 83 1013.7
20260904051003 61 25 0.0 1.0 0.00 0.00 0.00 83 1013.7
20260904050503 61 25 0.0 1.0 0.00 0.00 0.00 83 1013.6
20260904050119 61 25 0.0 7.0 0.00 0.00 0.00 83 1013.5
20260904045556 61 25 0.0 7.0 0.00 0.00 0.00 83 1013.6
20260904045056 61 5 0.0 5.0 0.00 0.00 0.00 83 1013.6
20260904044559 61 48 1.0 4.0 0.00 0.00 0.00 84 1013.6
20260904044055 61 20 0.0 5.0 0.00 0.00 0.00 84 1013.5
20260904043555 61 48 1.0 3.0 0.00 0.00 0.00 84 1013.4
20260904043055 61 58 0.0 2.0 0.00 0.00 0.00 84 1013.5
20260904042556 62 58 0.0 2.0 0.00 0.00 0.00 84 1013.4
20260904042058 62 58 0.0 1.0 0.00 0.00 0.00 84 1013.4
20260904041604 62 58 0.0 2.0 0.00 0.00 0.00 84 1013.3
20260904041054 62 57 0.0 3.0 0.00 0.00 0.00 84 1013.4
20260904040554 62 58 0.0 3.0 0.00 0.00 0.00 84 1013.4
20260904040049 62 33 0.0 0.0 0.00 0.00 0.00 84 1013.2
20260904035548 62 33 0.0 1.0 0.00 0.00 0.00 84 1013.2
20260904035047 62 33 0.0 1.0 0.00 0.00 0.00 84 1013.1
20260904034601 63 32 0.0 4.0 0.00 0.00 0.00 84 1013.0
20260904034050 63 32 0.0 6.0 0.00 0.00 0.00 84 1013.1
20260904033549 63 42 1.0 6.0 0.00 0.00 0.00 84 1012.9
20260904033046 63 77 0.0 4.0 0.00 0.00 0.00 84 1012.8
20260904032547 63 77 0.0 4.0 0.00 0.00 0.00 84 1012.8
20260904032047 63 31 0.0 4.0 0.00 0.00 0.00 84 1012.8
20260904031547 63 23 0.0 3.0 0.00 0.00 0.00 84 1012.8
20260904031046 64 44 0.0 9.0 0.00 0.00 0.00 84 1012.8
20260904030546 64 14 1.0 9.0 0.00 0.00 0.00 84 1012.8
20260904030030 64 16 0.0 5.0 0.00 0.00 0.00 84 1012.7